www.pogodaiklimat.ru

Погода и климат >> Архив погоды >> Россия >> Магаданская область >> Лабазная


ПОГОДА в Лабазной

  • Прогноз погоды в Лабазной
  • Монитор погоды в Лабазной

АРХИВ ПОГОДЫ в Лабазной

Время (UTC), дата Ветер
(напр.,м/с)
 
Видим.   Явления Облачность Т
(С)
Тd
(С)
f
(%)
Тe
(С)
Тes
(С)
Комфортность P
(гПа)
Po
(гПа)
Тmin
(С)
Tmax
(С)
R
(мм)
R24
(мм)
S
(см)
21 11.01 ЮВ 1 50 км 10/10 1000 м
[Cb calv]
-12.7 -14.3 88 -15 -15 1019.5 929.7 -12.7 19
00 12.01 штиль 0 20 км слаб. ливневой снег 10/10 1000 м
[Cb cap]
-13.6 -15.0 89 -14 -14 1020.4 930.2 -13.8
03 12.01 С 1 20 км слаб. ливневой снег 10/10 1000 м
[Cb cap]
-14.5 -15.7 91 -17 -17 1020.4 929.9
06 12.01 СВ 1 20 км слаб. ливневой снег 10/10 1000 м
[Cb cap]
-17.2 -18.7 88 -20 -20 1021.9 930.3
09 12.01 штиль 0 50 км {ливн. осадки} 10/8 1000 м
[Cb calv Ac trans Ci fib]
-19.6 -21.4 86 -20 -20 1023.0 930.5 -12.7 0.5
12 12.01 Ю 1 50 км {ливн. осадки} 10/8 1000 м
[Cb calv Ci fib]
-24.9 -27.2 81 -28 -28 1024.9 930.4
15 12.01 Ю 1 50 км 10/4 1000 м
[Cb calv Ac trans Ci fib]
-27.1 -29.6 79 -31 -31 опасность
обморожения
1025.1 929.8
18 12.01 Ю 1 50 км 10/8 1000 м
[Cb calv Ac trans Ci fib]
-29.1 -31.9 77 -33 -33 опасность
обморожения
1025.4 929.3
21 12.01 Ю 1 50 км 10/10 1000 м
[Cb calv]
-30.8 -33.8 75 -35 -35 опасность
обморожения
1025.7 928.9 -30.8 18
00 13.01 штиль 0 50 км 8/3 1000 м
[Sc Ac trans Ci fib]
-33.4 -36.8 71 -33 -33 опасность
обморожения
1026.9 929.0 -33.4
03 13.01 штиль 0 50 км 10/0
[Ac trans Ci fib]
-31.6 -34.8 73 -32 -32 опасность
обморожения
1025.2 928.1
06 13.01 Ю 1 50 км 10/5 1000 м
[Sc Ac trans Ci fib]
-32.6 -35.9 72 -37 -37 опасность
обморожения
1025.6 928.1
09 13.01 штиль 0 50 км 10/4 1000 м
[Sc Ac trans Ci fib]
-33.7 -37.2 71 -34 -34 опасность
обморожения
1026.4 928.4 -30.8
12 13.01 штиль 0 50 км 6/0
[Ci fib]
-32.0 -35.2 73 -32 -32 опасность
обморожения
1024.8 927.6
15 13.01 штиль 0 50 км 3/0
[Ci fib]
-31.7 -34.9 73 -32 -32 опасность
обморожения
1024.9 927.8
18 13.01 штиль 0 50 км 10/3 1000 м
[Sc Ac trans Ci fib]
-33.2 -36.6 71 -33 -33 опасность
обморожения
1026.1 1026.0
21 13.01 штиль 0 50 км ливневой дождь, в посл. час гроза 10/3 1000 м
[Sc Ac trans Ci fib]
-31.0 -34.1 74 -31 -31 опасность
обморожения
1024.9 928.1 -34.6 18
00 14.01 штиль 0 50 км 10/0
[Ac trans Ci fib]
-28.6 -31.4 77 -29 -29 1023.9 928.1
03 14.01 ЮЗ 1 20 км слаб. снег 10/0
[Ac trans Cs]
-27.6 -30.3 78 -31 -31 опасность
обморожения
1023.3 927.9
06 14.01 ЮЗ 1 20 км {снег} 10/0
[Ac trans Cs]
-28.7 -31.5 77 -33 -33 опасность
обморожения
1023.8 928.0
09 14.01 З 1 50 км 10/3 1000 м
[Sc Ac trans Ci fib]
-31.9 -35.0 74 -36 -36 опасность
обморожения
1025.6 928.4 -27.5 0.0
12 14.01 З 1 50 км 10/0
[Ac und]
-30.8 -33.8 75 -35 -35 опасность
обморожения
1025.2 928.5
15 14.01 штиль 0 50 км 10/0
[Ac trans Ci fib]
-36.9 -40.7 68 -37 -37 опасность
обморожения
1028.1 928.7
18 14.01 штиль 0 50 км 3/0
[Ci fib]
-38.3 -42.2 67 -38 -38 опасность
обморожения
1028.9 928.9
21 14.01 Ю 1 50 км 5/0
[Ac trans Ci fib]
-38.9 -42.9 66 -44 -44 опасность
обморожения
1029.9 929.5 -40.2 18
00 15.01 Ю 1 50 км 10/0
[Ac trans Ci fib]
-39.7 -43.8 65 -45 -45 опасность
обморожения
1030.6 929.9
03 15.01 Ю 1 50 км 6/0
[Ci fib]
-39.0 -43.1 65 -44 -44 опасность
обморожения
1030.2 929.8
06 15.01 штиль 0 50 км 10/0
[Ci fib]
-41.2 -45.5 63 -41 -41 опасность
обморожения
1032.1 930.6
09 15.01 ЮЗ 1 50 км 5/0
[Ci fib]
-40.6 -44.9 63 -46 -46 опасность
обморожения
1032.4 931.1 -38.6
12 15.01 штиль 0 50 км 4/0
[Ci fib]
-41.3 -45.6 63 -41 -41 опасность
обморожения
1033.4 931.7
15 15.01 штиль 0 50 км 3/0
[Ci fib]
-41.7 -46.1 62 -42 -42 опасность
обморожения
1034.1 932.2
18 15.01 штиль 0 н/о н/о -41.7 -46.0 63 -42 -42 опасность
обморожения
1034.4 932.4
21 15.01 штиль 0 50 км 4/0
[Ci fib]
-41.3 -45.7 62 -41 -41 опасность
обморожения
1034.8 933.0 -43.7 18
00 16.01 штиль 0 50 км 5/0
[Ci fib]
-42.1 -46.6 61 -42 -42 опасность
обморожения
1035.4 933.2
03 16.01 штиль 0 50 км 4/0
[Ci fib]
-38.3 -42.4 65 -38 -38 опасность
обморожения
1033.4 932.9
06 16.01 ЮЗ 1 20 км 6/0
[Ci fib]
-36.8 -40.7 67 -42 -42 опасность
обморожения
1033.1 933.3
09 16.01 ЮЗ 2 50 км 8/0
[Ac trans Ci fib]
-36.3 -40.0 68 -45 -45 опасность
обморожения
1032.7 933.2
12 16.01 З 1 50 км 8/0
[Ac trans Ci fib]
-35.8 -39.5 69 -41 -41 опасность
обморожения
1032.5 933.2
15 16.01 штиль 0 50 км 8/0
[Ac trans Ci fib]
-35.3 -39.0 69 -35 -35 опасность
обморожения
1031.2 932.2
18 16.01 З 1 50 км 10/0
[Ac trans Ci fib]
-35.8 -39.5 69 -41 -41 опасность
обморожения
1030.6 931.4
21 16.01 штиль 0 50 км 10/0
[Ac trans Ci fib]
-39.5 -43.6 65 -40 -40 опасность
обморожения
1031.3 930.6 -40.0 18
00 17.01 штиль 0 50 км 10/0
[Ac trans Ci fib]
-41.1 -45.5 62 -41 -41 опасность
обморожения
1031.5 930.1 -41.3
03 17.01 Ю 1 50 км 1/0
[Ci fib]
-39.0 -43.1 65 -44 -44 опасность
обморожения
1028.6 928.3
06 17.01 Ю 1 20 км 3/0
[Ci fib]
-39.9 -44.1 64 -45 -45 опасность
обморожения
1027.9 927.3
09 17.01 Ю 1 50 км ясно -40.8 -45.1 63 -46 -46 опасность
обморожения
1027.1 926.3 -38.2
12 17.01 Ю 1 50 км ясно -39.2 -43.3 65 -44 -44 опасность
обморожения
1025.0 925.0
15 17.01 штиль 0 50 км ясно -42.8 -47.4 60 -43 -43 опасность
обморожения
1025.6 924.1
18 17.01 штиль 0 50 км ясно -43.2 -47.7 61 -43 -43 опасность
обморожения
1024.9 923.3
21 17.01 штиль 0 50 км ясно -42.4 -46.9 61 -42 -42 опасность
обморожения
1024.1 922.9 -45.0 18
00 18.01 штиль 0 50 км 8/0
[Ac trans Ci fib]
-39.9 -44.1 64 -40 -40 опасность
обморожения
1023.2 923.1
03 18.01 штиль 0 50 км 8/0
[Ac trans Ci fib]
-39.8 -44.1 63 -40 -40 опасность
обморожения
1022.7 922.7
06 18.01 штиль 0 50 км 8/0
[Ac trans Ci fib]
-39.8 -44.1 63 -40 -40 опасность
обморожения
1022.7 922.7
09 18.01 ЮЗ 1 50 км 10/10 1000 м
[Sc]
-32.0 -35.3 72 -36 -36 опасность
обморожения
1019.5 922.9 -32.0
12 18.01 штиль 0 20 км слаб. снег 10/4 1000 м
[Sc As op]
-28.4 -31.3 76 -28 -28 1018.6 923.4
15 18.01 штиль 0 20 км слаб. снег 10/6 1000 м
[Sc As op]
-28.3 -31.2 76 -28 -28 1018.6 923.4

 

Местоположение метеостанции Лабазная (Магаданская область, Россия): широта 63.30 долгота 158.50 высота над уровнем моря 709 м.

В архиве по умолчанию представлена погода в Лабазной за последнюю неделю. Архивные данные за месяц целиком и за предыдущие месяцы, начиная с января 2011 года, Вы можете получить, выбрав интересующий диапазон дат из раскрывающегося списка и нажав кнопку "Ввод!".


*Определитесь, кто Вы:
робот инопланетянин человек

Внимание! Время в таблицах - всемирное. Для получения местного времени необходимо прибавить поправку, которая равна 11 ч.

Смотрите также архив погоды в соседних городах и на ближайших метеорологических станциях:

Погода в Эвенске (Магаданская область, Россия) (158 км)
Погода в Омсукчане (Магаданская область, Россия) (162 км)
Погода в Кегали (Магаданская область, Россия) (162 км)
Погода в Балыгычане (Магаданская область, Россия) (228 км)
Погода в Омолоне (Чукотка, Россия) (235 км)
Погода в Коркодоне (Магаданская область, Россия) (276 км)
Погода в Верхне-Пенжино (Камчатский край, Россия) (298 км)
Погода в Сеймчане (Магаданская область, Россия) (310 км)
Погода на Шелихова (Магаданская область, Россия) (320 км)
Погода в Среднекане (Магаданская область, Россия) (328 км)

Пояснения к столбцам:

Ветер - указаны скорость ветра в м/с - средняя за 10 мин, порывы в срок и между сроками (в фигурных скобках) и направление, откуда дует ветер: С - северный, СВ - северо-восточный, В - восточный, ЮВ - юго-восточный, Ю - южный, ЮЗ - юго-западный, З - западный, СЗ - северо-западный.
Видимость - горизонтальная дальность видимости в метрах или километрах. При видимости от 1 до 10 км при отсутствии осадков обычно наблюдается дымка, при ухудшении видимости до 1 км и менее - туман. В сухую погоду видимость может ухудшаться дымом, пылью или мглою.
Явления - указаны атмосферные явления, наблюдавшиеся в срок или в последний час перед сроком; фигурными скобками обозначены явления, наблюдавшиеся между сроками (за 1-3 часа до срока); квадратными скобками обозначены град или гололедные отложения с указанием их диаметра в мм.
Облачность - указаны через наклонную черту общая и нижняя облачность в баллах и высота нижней границы облаков в метрах; квадратными скобками обозначены формы облаков: Ci - перистые, Cs - перисто-слоистые, Cc - перисто-кучевые, Ac - высококучевые, As - высокослоистые, Sc - слоисто-кучевые, Ns - слоисто-дождевые, Cu - кучевые, Cb - кучево-дождевые. Подробнее классификацию облаков см. в Атласе облаков (PDF).
T - Температура воздуха - температура, измеренная на высоте 2 м над землей.
Td - Температура точки росы - температура, при понижении до которой содержащийся в воздухе водяной пар достигнет насыщения.
f - Относительная влажность воздуха - влажноcть воздуха, измеренная на высоте 2 м над землей.
Te - Эффективная температура - температура, которую ощущает одетый по сезону человек в тени. Характеристика душности погоды. При расчете учитывается влияние влажности воздуха и скорости ветра на теплоощущения человека.
Tes - Эффективная температура на солнце - температура, которую ощущает человек, с поправкой на солнечный нагрев. Характеристика знойности погоды. Зависит от высоты солнца над горизонтом, облачности и скорости ветра. Ночью, в пасмурную погоду, а также при ветре 12 м/с и более поправка равна нулю.
P - Атмосферное давление - приведенное к уровню моря атмосферное давление.
Po - Атмосферное давление - измеренное на уровне метеостанции атмосферное давление.
Tmin - Минимальная температура - минимум температуры воздуха на высоте 2 м над землей.
Tmax - Максимальная температура - максимум температуры воздуха на высоте 2 м над землей.
R - Количество осадков - Количество выпавших осадков за период времени, мм. При наведении курсора мыши на число - период времени, за который выпало указанное количество осадков.
R24 - Количество осадков - Количество выпавших осадков за 24 часа, мм.
S - Снежный покров - Высота снежного покрова, см. При наведении курсора мыши на число - состояние снежного покрова и степень покрытия местности в баллах.